Time,TemperatureF,DewpointF,PressureIn,WindDirection,WindDirectionDegrees,WindSpeedMPH,WindSpeedGustMPH,Humidity,HourlyPrecipIn,Conditions,Clouds,dailyrainin,SoftwareType,DateUTC
2013-05-22 00:02:00,57.0,46.0,-100.00,WSW,250,4.0,6.0,65,0.00,,,-99.99,,2013-05-22 05:02:00,
2013-05-22 00:11:00,56.0,46.0,-100.00,SW,235,3.0,5.0,69,0.00,,,-99.99,,2013-05-22 05:11:00,
2013-05-22 00:21:00,56.0,47.0,-100.00,SW,235,3.0,5.0,71,0.00,,,-99.99,,2013-05-22 05:21:00,
2013-05-22 00:32:00,56.0,47.0,-100.00,SW,230,4.0,6.0,73,0.00,,,-99.99,,2013-05-22 05:32:00,
2013-05-22 00:42:00,56.0,48.0,-100.00,SW,235,4.0,6.0,73,0.00,,,-99.99,,2013-05-22 05:42:00,
2013-05-22 00:51:00,57.0,48.0,-100.00,WSW,245,3.0,7.0,73,0.00,,,-99.99,,2013-05-22 05:51:00,
2013-05-22 01:01:00,57.0,48.0,-100.00,WSW,245,3.0,7.0,73,0.00,,,-99.99,,2013-05-22 06:01:00,
2013-05-22 01:11:00,56.0,48.0,-100.00,SW,230,4.0,6.0,73,0.00,,,-99.99,,2013-05-22 06:11:00,
2013-05-22 01:21:00,56.0,48.0,-100.00,WSW,245,3.0,6.0,75,0.00,,,-99.99,,2013-05-22 06:21:00,
2013-05-22 01:32:00,56.0,49.0,-100.00,SW,230,3.0,5.0,76,0.00,,,-99.99,,2013-05-22 06:32:00,
2013-05-22 01:42:00,56.0,49.0,-100.00,SW,230,3.0,5.0,76,0.00,,,-99.99,,2013-05-22 06:42:00,
2013-05-22 01:52:00,56.0,49.0,-100.00,West,265,6.0,8.0,77,0.00,,,-99.99,,2013-05-22 06:52:00,
2013-05-22 02:01:00,56.0,49.0,-100.00,West,265,6.0,8.0,77,0.00,,,-99.99,,2013-05-22 07:01:00,
2013-05-22 02:11:00,56.0,50.0,-100.00,West,280,5.0,7.0,78,0.00,,,-99.99,,2013-05-22 07:11:00,
2013-05-22 02:21:00,56.0,50.0,-100.00,West,265,4.0,8.0,79,0.00,,,-99.99,,2013-05-22 07:21:00,
2013-05-22 02:31:00,56.0,50.0,-100.00,West,260,4.0,6.0,80,0.00,,,-99.99,,2013-05-22 07:31:00,
2013-05-22 02:41:00,56.0,50.0,-100.00,West,260,4.0,6.0,80,0.00,,,-99.99,,2013-05-22 07:41:00,
2013-05-22 02:52:00,56.0,51.0,-100.00,West,260,4.0,6.0,81,0.00,,,-99.99,,2013-05-22 07:52:00,
2013-05-22 03:02:00,56.0,51.0,-100.00,West,260,6.0,7.0,81,0.00,,,-99.99,,2013-05-22 08:02:00,
2013-05-22 03:11:00,56.0,51.0,-100.00,West,280,5.0,8.0,82,0.00,,,-99.99,,2013-05-22 08:11:00,
2013-05-22 03:22:00,56.0,51.0,-100.00,West,280,5.0,8.0,82,0.00,,,-99.99,,2013-05-22 08:22:00,
2013-05-22 03:31:00,56.0,51.0,-100.00,West,270,5.0,7.0,82,0.00,,,-99.99,,2013-05-22 08:31:00,
2013-05-22 03:42:00,56.0,51.0,-100.00,West,270,5.0,7.0,82,0.00,,,-99.99,,2013-05-22 08:42:00,
2013-05-22 03:51:00,56.0,51.0,-100.00,West,280,3.0,6.0,82,0.00,,,-99.99,,2013-05-22 08:51:00,
2013-05-22 04:01:00,57.0,52.0,-100.00,West,275,4.0,6.0,83,0.00,,,-99.99,,2013-05-22 09:01:00,
2013-05-22 04:11:00,57.0,52.0,-100.00,West,275,4.0,6.0,83,0.00,,,-99.99,,2013-05-22 09:11:00,
2013-05-22 04:21:00,57.0,52.0,-100.00,West,275,6.0,11.0,83,0.00,,,-99.99,,2013-05-22 09:21:00,
2013-05-22 04:33:00,56.0,51.0,-100.00,West,280,7.0,9.0,83,0.00,,,-99.99,,2013-05-22 09:33:00,
2013-05-22 04:42:00,56.0,51.0,-100.00,West,280,5.0,9.0,83,0.00,,,-99.99,,2013-05-22 09:42:00,
2013-05-22 04:53:00,56.0,51.0,-100.00,West,280,4.0,7.0,83,0.00,,,-99.99,,2013-05-22 09:53:00,
2013-05-22 05:03:00,56.0,51.0,-100.00,West,280,4.0,7.0,83,0.00,,,-99.99,,2013-05-22 10:03:00,
2013-05-22 05:12:00,56.0,51.0,-100.00,West,270,11.0,15.0,83,0.00,,,-99.99,,2013-05-22 10:12:00,
2013-05-22 05:22:00,56.0,51.0,-100.00,West,280,9.0,15.0,82,0.00,,,-99.99,,2013-05-22 10:22:00,
2013-05-22 05:33:00,55.0,50.0,-100.00,West,275,5.0,11.0,83,0.00,,,-99.99,,2013-05-22 10:33:00,
2013-05-22 05:42:00,55.0,50.0,-100.00,West,280,6.0,12.0,83,0.00,,,-99.99,,2013-05-22 10:42:00,
2013-05-22 05:52:00,55.0,50.0,-100.00,WNW,290,5.0,7.0,83,0.00,,,-99.99,,2013-05-22 10:52:00,
2013-05-22 06:02:00,55.0,50.0,-100.00,WNW,290,5.0,7.0,83,0.00,,,-99.99,,2013-05-22 11:02:00,
2013-05-22 06:11:00,55.0,50.0,-100.00,WNW,285,7.0,11.0,83,0.00,,,-99.99,,2013-05-22 11:11:00,
2013-05-22 06:21:00,55.0,50.0,-100.00,WNW,285,6.0,11.0,82,0.00,,,-99.99,,2013-05-22 11:21:00,
2013-05-22 06:32:00,55.0,49.0,-100.00,NW,305,8.0,14.0,81,0.00,,,-99.99,,2013-05-22 11:32:00,
2013-05-22 06:41:00,55.0,49.0,-100.00,NW,305,8.0,14.0,81,0.00,,,-99.99,,2013-05-22 11:41:00,
2013-05-22 06:52:00,55.0,49.0,-100.00,West,280,9.0,11.0,80,0.00,,,-99.99,,2013-05-22 11:52:00,
2013-05-22 07:02:00,54.0,48.0,-100.00,West,280,7.0,11.0,80,0.00,,,-99.99,,2013-05-22 12:02:00,
2013-05-22 07:12:00,54.0,48.0,-100.00,West,280,7.0,11.0,80,0.00,,,-99.99,,2013-05-22 12:12:00,
2013-05-22 07:22:00,55.0,49.0,-100.00,West,275,7.0,11.0,81,0.00,,,-99.99,,2013-05-22 12:22:00,
2013-05-22 07:32:00,55.0,50.0,-100.00,West,280,8.0,11.0,81,0.00,,,-99.99,,2013-05-22 12:32:00,
2013-05-22 07:42:00,55.0,49.0,-100.00,West,280,8.0,14.0,79,0.00,,,-99.99,,2013-05-22 12:42:00,
2013-05-22 07:52:00,55.0,49.0,-100.00,West,280,10.0,15.0,79,0.00,,,-99.99,,2013-05-22 12:52:00,
2013-05-22 08:01:00,55.0,49.0,-100.00,West,280,10.0,15.0,79,0.00,,,-99.99,,2013-05-22 13:01:00,
2013-05-22 08:11:00,56.0,49.0,-100.00,WNW,290,9.0,14.0,79,0.00,,,-99.99,,2013-05-22 13:11:00,
2013-05-22 08:22:00,55.0,49.0,-100.00,West,275,10.0,17.0,79,0.00,,,-99.99,,2013-05-22 13:22:00,
2013-05-22 08:32:00,55.0,49.0,-100.00,West,280,14.0,17.0,80,0.00,,,-99.99,,2013-05-22 13:32:00,
2013-05-22 08:41:00,56.0,50.0,-100.00,West,280,12.0,19.0,81,0.00,,,-99.99,,2013-05-22 13:41:00,
2013-05-22 08:52:00,56.0,50.0,-100.00,West,280,12.0,19.0,81,0.00,,,-99.99,,2013-05-22 13:52:00,
2013-05-22 09:02:00,55.0,50.0,-100.00,West,265,9.0,17.0,81,0.00,,,-99.99,,2013-05-22 14:02:00,
2013-05-22 09:11:00,56.0,49.0,-100.00,West,280,10.0,16.0,79,0.00,,,-99.99,,2013-05-22 14:11:00,
2013-05-22 09:21:00,56.0,49.0,-100.00,West,280,10.0,16.0,79,0.00,,,-99.99,,2013-05-22 14:21:00,
2013-05-22 09:32:00,55.0,49.0,-100.00,WNW,285,9.0,16.0,78,0.00,,,-99.99,,2013-05-22 14:32:00,
2013-05-22 09:42:00,55.0,49.0,-100.00,WNW,285,9.0,16.0,78,0.00,,,-99.99,,2013-05-22 14:42:00,
2013-05-22 09:52:00,56.0,49.0,-100.00,West,260,9.0,16.0,78,0.00,,,-99.99,,2013-05-22 14:52:00,
2013-05-22 10:01:00,56.0,49.0,-100.00,West,275,14.0,17.0,77,0.00,,,-99.99,,2013-05-22 15:01:00,
2013-05-22 10:11:00,56.0,49.0,-100.00,West,275,14.0,17.0,77,0.00,,,-99.99,,2013-05-22 15:11:00,
2013-05-22 10:21:00,56.0,49.0,-100.00,West,270,11.0,18.0,76,0.00,,,-99.99,,2013-05-22 15:21:00,
2013-05-22 10:32:00,56.0,49.0,-100.00,West,280,9.0,18.0,76,0.00,,,-99.99,,2013-05-22 15:32:00,
2013-05-22 10:42:00,56.0,49.0,-100.00,West,270,10.0,16.0,77,0.00,,,-99.99,,2013-05-22 15:42:00,
2013-05-22 10:53:00,56.0,50.0,-100.00,West,275,13.0,17.0,77,0.00,,,-99.99,,2013-05-22 15:53:00,
2013-05-22 11:03:00,56.0,50.0,-100.00,West,275,13.0,17.0,77,0.00,,,-99.99,,2013-05-22 16:03:00,
2013-05-22 11:12:00,57.0,50.0,-100.00,WNW,285,11.0,17.0,77,0.00,,,-99.99,,2013-05-22 16:12:00,
2013-05-22 11:23:00,57.0,50.0,-100.00,West,275,11.0,22.0,77,0.00,,,-99.99,,2013-05-22 16:23:00,
2013-05-22 11:32:00,57.0,50.0,-100.00,West,275,9.0,19.0,76,0.00,,,-99.99,,2013-05-22 16:32:00,
2013-05-22 11:42:00,57.0,50.0,-100.00,West,265,12.0,18.0,76,0.00,,,-99.99,,2013-05-22 16:42:00,
2013-05-22 11:52:00,57.0,50.0,-100.00,West,265,12.0,18.0,76,0.00,,,-99.99,,2013-05-22 16:52:00,
2013-05-22 12:02:00,58.0,50.0,-100.00,West,280,10.0,17.0,76,0.00,,,-99.99,,2013-05-22 17:02:00,
2013-05-22 12:11:00,58.0,50.0,-100.00,West,270,11.0,18.0,75,0.00,,,-99.99,,2013-05-22 17:11:00,
2013-05-22 12:22:00,58.0,50.0,-100.00,West,270,11.0,18.0,75,0.00,,,-99.99,,2013-05-22 17:22:00,
2013-05-22 12:33:00,58.0,51.0,-100.00,West,280,9.0,17.0,78,0.00,,,-99.99,,2013-05-22 17:33:00,
2013-05-22 12:42:00,58.0,51.0,-100.00,West,280,9.0,17.0,78,0.00,,,-99.99,,2013-05-22 17:42:00,
2013-05-22 12:53:00,58.0,51.0,-100.00,West,275,9.0,16.0,79,0.00,,,-99.99,,2013-05-22 17:53:00,
2013-05-22 13:02:00,59.0,52.0,-100.00,WNW,285,12.0,18.0,77,0.00,,,-99.99,,2013-05-22 18:02:00,
2013-05-22 13:14:00,59.0,52.0,-100.00,WNW,285,12.0,18.0,77,0.00,,,-99.99,,2013-05-22 18:14:00,
2013-05-22 13:22:00,59.0,52.0,-100.00,West,280,7.0,18.0,77,0.00,,,-99.99,,2013-05-22 18:22:00,
2013-05-22 13:33:00,58.0,51.0,-100.00,West,280,12.0,18.0,77,0.00,,,-99.99,,2013-05-22 18:33:00,
2013-05-22 13:42:00,60.0,52.0,-100.00,West,280,14.0,18.0,76,0.00,,,-99.99,,2013-05-22 18:42:00,
2013-05-22 13:52:00,59.0,51.0,-100.00,West,280,15.0,21.0,74,0.00,,,-99.99,,2013-05-22 18:52:00,
2013-05-22 14:02:00,59.0,51.0,-100.00,West,280,15.0,21.0,74,0.00,,,-99.99,,2013-05-22 19:02:00,
2013-05-22 14:11:00,60.0,51.0,-100.00,WNW,285,11.0,16.0,74,0.00,,,-99.99,,2013-05-22 19:11:00,
2013-05-22 14:21:00,59.0,51.0,-100.00,West,275,10.0,24.0,74,0.00,,,-99.99,,2013-05-22 19:21:00,
2013-05-22 14:32:00,59.0,51.0,-100.00,West,270,14.0,22.0,73,0.00,,,-99.99,,2013-05-22 19:32:00,
2013-05-22 14:42:00,59.0,51.0,-100.00,West,270,14.0,22.0,73,0.00,,,-99.99,,2013-05-22 19:42:00,
2013-05-22 14:52:00,60.0,51.0,-100.00,West,270,10.0,17.0,71,0.00,,,-99.99,,2013-05-22 19:52:00,
2013-05-22 15:02:00,59.0,49.0,-100.00,West,280,9.0,21.0,70,0.00,,,-99.99,,2013-05-22 20:02:00,
2013-05-22 15:11:00,60.0,50.0,-100.00,West,270,10.0,19.0,70,0.00,,,-99.99,,2013-05-22 20:11:00,
2013-05-22 15:21:00,60.0,50.0,-100.00,West,270,10.0,19.0,70,0.00,,,-99.99,,2013-05-22 20:21:00,
2013-05-22 15:32:00,59.0,50.0,-100.00,West,280,12.0,17.0,72,0.00,,,-99.99,,2013-05-22 20:32:00,
2013-05-22 15:42:00,59.0,50.0,-100.00,West,280,12.0,17.0,72,0.00,,,-99.99,,2013-05-22 20:42:00,
2013-05-22 15:51:00,60.0,51.0,-100.00,West,280,9.0,17.0,70,0.00,,,-99.99,,2013-05-22 20:51:00,
2013-05-22 16:01:00,59.0,49.0,-100.00,NW,310,11.0,21.0,69,0.00,,,-99.99,,2013-05-22 21:01:00,
2013-05-22 16:11:00,59.0,49.0,-100.00,NW,310,11.0,21.0,69,0.00,,,-99.99,,2013-05-22 21:11:00,
2013-05-22 16:21:00,60.0,49.0,-100.00,NW,315,10.0,19.0,67,0.00,,,-99.99,,2013-05-22 21:21:00,
2013-05-22 16:32:00,59.0,49.0,-100.00,WNW,290,11.0,16.0,69,0.00,,,-99.99,,2013-05-22 21:32:00,
2013-05-22 16:42:00,59.0,49.0,-100.00,WNW,300,14.0,21.0,69,0.00,,,-99.99,,2013-05-22 21:42:00,
2013-05-22 16:53:00,59.0,49.0,-100.00,NW,305,14.0,21.0,69,0.00,,,-99.99,,2013-05-22 21:53:00,
2013-05-22 17:03:00,59.0,49.0,-100.00,NW,305,14.0,21.0,69,0.00,,,-99.99,,2013-05-22 22:03:00,
2013-05-22 17:13:00,59.0,49.0,-100.00,WNW,295,9.0,16.0,68,0.00,,,-99.99,,2013-05-22 22:13:00,
2013-05-22 17:22:00,59.0,48.0,-100.00,NW,305,11.0,18.0,67,0.00,,,-99.99,,2013-05-22 22:22:00,
2013-05-22 17:33:00,60.0,48.0,-100.00,WNW,300,11.0,17.0,65,0.00,,,-99.99,,2013-05-22 22:33:00,
2013-05-22 17:42:00,60.0,48.0,-100.00,WNW,300,11.0,17.0,65,0.00,,,-99.99,,2013-05-22 22:42:00,
2013-05-22 17:52:00,60.0,47.0,-100.00,NW,315,13.0,20.0,63,0.00,,,-99.99,,2013-05-22 22:52:00,
2013-05-22 18:02:00,60.0,47.0,-100.00,NW,305,14.0,20.0,61,0.00,,,-99.99,,2013-05-22 23:02:00,
2013-05-22 18:12:00,60.0,47.0,-100.00,NW,305,14.0,20.0,61,0.00,,,-99.99,,2013-05-22 23:12:00,
2013-05-22 18:21:00,59.0,46.0,-100.00,NW,315,14.0,21.0,61,0.00,,,-99.99,,2013-05-22 23:21:00,
2013-05-22 18:32:00,59.0,46.0,-100.00,NNW,330,10.0,16.0,62,0.00,,,-99.99,,2013-05-22 23:32:00,
2013-05-22 18:42:00,59.0,46.0,-100.00,NW,320,11.0,15.0,61,0.00,,,-99.99,,2013-05-22 23:42:00,
2013-05-22 18:53:00,59.0,46.0,-100.00,NNW,330,7.0,12.0,61,0.00,,,-99.99,,2013-05-22 23:53:00,
2013-05-22 19:01:00,59.0,46.0,-100.00,NNW,330,7.0,12.0,61,0.00,,,-99.99,,2013-05-23 00:01:00,
2013-05-22 19:11:00,59.0,46.0,-100.00,NW,320,7.0,15.0,61,0.00,,,-99.99,,2013-05-23 00:11:00,
2013-05-22 19:22:00,59.0,46.0,-100.00,NW,320,7.0,15.0,61,0.00,,,-99.99,,2013-05-23 00:22:00,
2013-05-22 19:31:00,58.0,47.0,-100.00,NW,325,4.0,10.0,64,0.00,,,-99.99,,2013-05-23 00:31:00,
2013-05-22 19:42:00,58.0,47.0,-100.00,NW,325,4.0,10.0,64,0.00,,,-99.99,,2013-05-23 00:42:00,
2013-05-22 19:51:00,58.0,47.0,-100.00,NW,315,5.0,9.0,65,0.00,,,-99.99,,2013-05-23 00:51:00,
2013-05-22 20:01:00,58.0,47.0,-100.00,NNW,330,4.0,8.0,66,0.00,,,-99.99,,2013-05-23 01:01:00,
2013-05-22 20:11:00,58.0,47.0,-100.00,NNW,330,4.0,8.0,66,0.00,,,-99.99,,2013-05-23 01:11:00,
2013-05-22 20:21:00,56.0,49.0,-100.00,WNW,295,9.0,16.0,79,0.10,,,-99.99,,2013-05-23 01:21:00,
2013-05-22 20:32:00,55.0,51.0,-100.00,WNW,295,6.0,12.0,84,0.00,,,-99.99,,2013-05-23 01:32:00,
2013-05-22 20:42:00,55.0,51.0,-100.00,West,275,6.0,11.0,87,0.00,,,-99.99,,2013-05-23 01:42:00,
2013-05-22 20:52:00,55.0,51.0,-100.00,West,270,8.0,11.0,88,0.00,,,-99.99,,2013-05-23 01:52:00,
2013-05-22 21:01:00,55.0,51.0,-100.00,West,270,8.0,11.0,88,0.00,,,-99.99,,2013-05-23 02:01:00,
2013-05-22 21:11:00,54.0,51.0,-100.00,WNW,290,7.0,13.0,89,0.11,,,-99.99,,2013-05-23 02:11:00,
2013-05-22 21:21:00,54.0,51.0,-100.00,West,280,7.0,13.0,90,0.00,,,-99.99,,2013-05-23 02:21:00,
2013-05-22 21:31:00,54.0,51.0,-100.00,WNW,285,6.0,10.0,90,0.00,,,-99.99,,2013-05-23 02:31:00,
2013-05-22 21:42:00,54.0,51.0,-100.00,WNW,285,6.0,10.0,90,0.00,,,-99.99,,2013-05-23 02:42:00,
2013-05-22 21:51:00,54.0,51.0,-100.00,WNW,285,6.0,10.0,90,0.00,,,-99.99,,2013-05-23 02:51:00,
2013-05-22 22:01:00,54.0,51.0,-100.00,WNW,295,6.0,11.0,90,0.00,,,-99.99,,2013-05-23 03:01:00,
2013-05-22 22:11:00,54.0,51.0,-100.00,WNW,295,6.0,11.0,90,0.00,,,-99.99,,2013-05-23 03:11:00,
2013-05-22 22:21:00,54.0,51.0,-100.00,West,275,6.0,10.0,90,0.00,,,-99.99,,2013-05-23 03:21:00,
2013-05-22 22:33:00,54.0,51.0,-100.00,WNW,285,7.0,12.0,90,0.00,,,-99.99,,2013-05-23 03:33:00,
2013-05-22 22:43:00,54.0,51.0,-100.00,WNW,295,6.0,9.0,90,0.00,,,-99.99,,2013-05-23 03:43:00,
2013-05-22 22:53:00,54.0,51.0,-100.00,WNW,290,6.0,10.0,90,0.00,,,-99.99,,2013-05-23 03:53:00,
2013-05-22 23:03:00,54.0,51.0,-100.00,WNW,290,6.0,10.0,90,0.00,,,-99.99,,2013-05-23 04:03:00,
2013-05-22 23:12:00,53.0,50.0,-100.00,WNW,290,7.0,12.0,89,0.00,,,-99.99,,2013-05-23 04:12:00,
2013-05-22 23:22:00,53.0,50.0,-100.00,West,280,6.0,11.0,89,0.00,,,-99.99,,2013-05-23 04:22:00,
2013-05-22 23:33:00,53.0,50.0,-100.00,WNW,295,7.0,11.0,89,0.00,,,-99.99,,2013-05-23 04:33:00,
2013-05-22 23:42:00,52.0,49.0,-100.00,WNW,290,6.0,12.0,89,0.00,,,-99.99,,2013-05-23 04:42:00,
2013-05-22 23:52:00,52.0,49.0,-100.00,WNW,295,6.0,10.0,89,0.00,,,-99.99,,2013-05-23 04:52:00,